Regional Weather Roundup
Issued by NWS

Home | Current Version | Previous Version | Graphics & Text | Print | Product List | Glossary On
Versions: 1 2 3 4 5 6 7 8 9 10 11 12 13 14 15 16 17 18 19 20 21 22 23 24 25 26 27 28 29 30 31 32 33 34 35 36 37 38 39 40 41 42 43 44 45 46 47 48 49 50
000
ASUS43 KMKX 271600
RWRWI

WISCONSIN REGIONAL WEATHER ROUNDUP
NATIONAL WEATHER SERVICE MILWAUKEE/SULLIVAN WI
1100 AM CDT SAT AUG 27 2016

NOTE: "FAIR" INDICATES FEW OR NO CLOUDS BELOW 12,000 FEET WITH NO
SIGNIFICANT WEATHER AND/OR OBSTRUCTIONS TO VISIBILITY.

WIZ001-002-006>008-014>016-023>028-271700-
NORTHWEST WISCONSIN

CITY           SKY/WX    TMP DP  RH WIND       PRES   REMARKS
SUPERIOR ARPT  LGT RAIN  62  58  89 CALM      30.09F
ASHLAND        CLOUDY    68  58  70 SE5       30.09F
HAYWARD        CLOUDY    63  56  78 SE3       30.09F
SIREN          CLOUDY    63  58  85 SE3       30.08F
CUMBERLAND     CLOUDY    63  55  77 SE3       30.09F
RICE LAKE      CLOUDY    64  57  77 CALM      30.09F
CHETEK         NOT AVBL
LADYSMITH      MOSUNNY   67  57  71 S5        30.11F
EAU CLAIRE     NOT AVBL
MENOMONIE      PTSUNNY   67  59  74 E12       30.07F
NEW RICHMOND   CLOUDY    64  58  82 E5        30.07F
OSCEOLA        CLOUDY    64  64 100 E5        30.10F
$$

WIZ003>005-009-010-017-018-271700-
NORTH CENTRAL WISCONSIN

CITY           SKY/WX    TMP DP  RH WIND       PRES   REMARKS
MANITOWISH WTR NOT AVBL
ARBOR VITAE    PTSUNNY   67  57  69 S8        30.13F
WOODRUFF       PTSUNNY   67  57  69 S8        30.13F
RHINELANDER    CLOUDY    65  58  78 VRB5      30.13F
EAGLE RIVER    CLOUDY    65  54  67 S6        30.13F
LAND O LAKES   CLOUDY    67  53  61 SE3       30.13F
PHILLIPS       CLOUDY    65  57  76 SE6       30.11F
TOMAHAWK       MOSUNNY   65  57  76 SE3       30.13F
MEDFORD        SUNNY     66  58  75 SE9       30.10F
MERRILL        CLOUDY    67  58  72 SE9       30.12F
$$

WIZ029-030-035-036-043>047-271700-
CENTRAL WISCONSIN

CITY           SKY/WX    TMP DP  RH WIND       PRES   REMARKS
WAUSAU         CLOUDY    64  58  80 SE10      30.09F
MOSINEE        CLOUDY    63  61  94 E8        30.11F
MARSHFIELD     CLOUDY    65  58  78 E8        30.09F
STEVENS POINT  CLOUDY    60  58  91 E6        30.11F
WAUPACA        CLOUDY    65  64  96 E7        30.10F
WAUTOMA        CLOUDY    63  61  93 E9        30.07F
WISC RAPIDS    CLOUDY    64  61  90 E6        30.09F
CAMP DOUGLAS   NOT AVBL
$$

WIZ011>013-019>022-031-037>040-048>050-271700-
NORTHEAST WISCONSIN

CITY           SKY/WX    TMP DP  RH WIND       PRES   REMARKS
ANTIGO         CLOUDY    63  59  86 SE7       30.14S
SHAWANO        CLOUDY    66  62  86 E5        30.11F
OCONTO         NOT AVBL
STURGEON BAY   CLOUDY    63  60  90 SE10      30.12F
GREEN BAY      CLOUDY    63  62  97 E8        30.10F
MANITOWOC      NOT AVBL
APPLETON       CLOUDY    63  63 100 E7        30.09F
CLINTONVILLE   CLOUDY    63  59  88 E6        30.11F
OSHKOSH        CLOUDY    63  59  87 E8        30.08F
$$

WIZ032>034-041-042-053>061-271700-
SOUTHWEST WISCONSIN

CITY           SKY/WX    TMP DP  RH WIND       PRES   REMARKS
LA CROSSE      CLOUDY    66  61  84 SE7       30.04F
SPARTA         CLOUDY    63  60  90 E10       30.07F
VIROQUA        CLOUDY    64  63  94 SE9       30.06S
BOSCOBEL       CLOUDY    67  63  87 VRB6      30.04F
PRAIRIE DU CHI CLOUDY    64  63  95 E5        30.04S
PLATTEVILLE    CLOUDY    65  65 100 E8        30.04F
$$

WIZ056-057-062-063-064-067-068-271700-
SOUTH CENTRAL WISCONSIN

CITY           SKY/WX    TMP DP  RH WIND       PRES   REMARKS
REEDSBURG      NOT AVBL
BARABOO/DELLS  CLOUDY    62  60  94 E8        30.07F
LONE ROCK      NOT AVBL
MINERAL POINT  LGT RAIN  64  64 100 E7        30.04F
MADISON        DRIZZLE   64  62  93 E6        30.04F
MIDDLETON      CLOUDY    64  64 100 E6        30.06F
WATERTOWN      CLOUDY    64  64  99 E3        30.06S
MONROE         CLOUDY    66  64  94 CALM      30.04F FOG
JANESVILLE     CLOUDY    73  72  94 VRB6      30.02F
$$

WIZ051-052-058>065-066-070>072-271700-
SOUTHEAST WISCONSIN

CITY           SKY/WX    TMP DP  RH WIND       PRES   REMARKS
MILWAUKEE      PTSUNNY   69  65  86 NE9       30.05F
WAUKESHA       CLOUDY    63  61  94 E5        30.07F
MILWAUKEE/TIMM CLOUDY    64  61  88 NE6       30.06F
RACINE         CLOUDY    70  66  87 N6        30.06F
BURLINGTON     CLOUDY    67  64  90 NE5       30.05F
KENOSHA        CLOUDY    73  69  87 SE7       30.05F
FOND DU LAC    LGT RAIN  61  60  97 NE7       30.08F
SHEBOYGAN      CLOUDY    63  60  90 NE13      30.08F
WEST BEND      CLOUDY    61  59  94 NE5       30.07F
JUNEAU         CLOUDY    62  60  93 NE6       30.08F
$$

LSZ147-162-271700-
LAKE SUPERIOR

STATION/POSITION TIME  TEMP    WIND        PRES    WAVE
                       AIR SEA DIR/SP/G            HT/PER
                 (UTC) (F)     (DEG/KT/KT) (MB)    (FT/S)
W MID LAKE BUOY  1450   66 67  150/  8/ 10 1019.5R   1/ 3
DEVILS ISLAND    1500   65     150/  5/  6 1019.5F
PORT WING        1500   67     120/  2/  4 1019.3
SAXON HARBOR     1540   70     110/  2/  5 1019.0F
$$

LMZ867-665-643>646-271700-
LAKE MICHIGAN

STATION/POSITION TIME  TEMP    WIND        PRES    WAVE
                       AIR SEA DIR/SP/G            HT/PER
                 (UTC) (F)     (DEG/KT/KT) (MB)    (FT/S)
CHAMBERS ISLAND  1500   63     130/  6/ 12 1020.3F
S GREEN BAY BUOY 1500   64 71  120/ 12/ 14 1019.7
N MID LAKE BUOY  1450   66 69  160/ 12/ 14 1020.5S   2/ 3
NORTHPORT PIER   1500   64     150/ 10/ 15 1020.7F
SISTER BAY       1537   61     140/  9/ 15   N/A
KEWAUNEE LAKESHO 1500   59     100/  6/  9 1020.0F
SHEBOYGAN LAKESH 1500   60     350/ 11/ 12 1019.1F
PORT WASHINGTON  1540   64      40/ 10/ 13 1018.6F
ATWATER BUOY     1500   61     350/ 10/ 14   N/A
MILWAUKEE LAKESH 1510   64     360/  7/  8   N/A
S MID LAKE BUOY  1450   71 74  140/ 16/ 17 1017.8R   2/ 4
KENOSHA   LAKESH 1500   69     170/  8/  9 1017.6S
$$

TC  - TEMPERATURE IN CELSIUS
VSB - VISIBILITY IN STATUTE MILES
WCI - WIND CHILL INDEX
HX  - HEAT INDEX





USA.gov is the U.S. government's official web portal to all federal, state and local government web resources and services.